Regional Weather Roundup
Issued by NWS Burlington, VT

Current Version | Previous Version | Graphics & Text | Print | Product List | Glossary Off
Versions: 1 2 3 4 5 6 7 8 9 10 11 12 13 14 15 16 17 18 19 20 21 22 23 24 25 26 27 28 29 30 31 32 33 34 35 36 37 38 39 40 41 42 43 44 45 46 47 48 49 50

000
ASUS41 KBTV 280230
RWRBTV
VERMONT REGIONAL WEATHER ROUNDUP
NATIONAL WEATHER SERVICE BURLINGTON VT
1000 PM EDT WED AUG 27 2014

NOTE: "FAIR" INDICATES FEW OR NO CLOUDS BELOW 12,000 FEET WITH NO
SIGNIFICANT WEATHER AND/OR OBSTRUCTIONS TO VISIBILITY.

* THESE REPORTS ARE NOT UNDER NWS QUALITY CONTROL AND/OR DO NOT
  REPORT WEATHER SUCH AS PRECIPITATION AND FOG.

VTZ001>019-280300-
_____VERMONT_____


CITY           SKY/WX    TMP DP  RH WIND       PRES   REMARKS
BURLINGTON     CLOUDY    70  58  65 N3        29.93S
MONTPELIER     CLOUDY    64  61  90 CALM      29.98S
MORRISVILLE    CLOUDY    64  59  83 CALM      29.95S
ST. JOHNSBURY*   N/A     67  59  75 MISG      29.91S
MIDDLEBURY*    FAIR      70  58  64 CALM      29.92F
RUTLAND*       CLOUDY    70  64  83 N3        29.92F
SPRINGFIELD    PTCLDY    73  64  73 N5        29.92R
HIGHGATE*      FAIR      67  59  76 CALM      29.92S
NEWPORT*       FAIR      65  56  74 W6        29.94S
BENNINGTON     CLEAR     71  60  68 W9        29.93F
SUTTON*          N/A     61 N/A N/A MISG        N/A
MT. MANSFIELD*   N/A     54 N/A N/A NW14        N/A

_____LAKE CHAMPLAIN_____


CITY           SKY/WX    TMP DP  RH WIND       PRES   REMARKS
BURTON ISLAND*   N/A     72  63  73 NW2         N/A
COLCHESTER RF*   N/A     72  61  68 NW6         N/A
DIAMOND ISL*     N/A     72  63  73 N10         N/A

$$

NYZ007-026>031-035-052-083-280300-
_____NORTHERN NEW YORK_____


CITY           SKY/WX    TMP DP  RH WIND       PRES   REMARKS
PLATTSBURGH    CLOUDY    69  58  67 NW3       29.92S
SARANAC LAKE   CLOUDY    62  57  83 CALM      29.97S
MASSENA        PTCLDY    66  59  78 W5        29.95S
OGDENSBURG*    MOCLDY    64  63  94 CALM      29.96S
POTSDAM*       CLOUDY    64  63  94 SW3       29.96S
WATERTOWN      PTCLDY    68  59  73 W5        29.97R
FT DRUM        MOCLDY    65  59  81 W5        29.97R
ALBANY         CLOUDY    72  57  59 W12       29.93F
GLENS FALLS    MOCLDY    73  62  68 CALM      29.92R

$$
NHZ002-005-011-280300-
_____NEW HAMPSHIRE_____


CITY           SKY/WX    TMP DP  RH WIND       PRES   REMARKS
LEBANON        MOCLDY    68  65  90 CALM      29.91S
KEENE          CLEAR     70  59  68 CALM      29.89F
MT WASHINGTON  FOG       46  46 100 W32         N/A  VSB 0
PLYMOUTH       FAIR      68  67  96 CALM      29.89F
WHITEFIELD     MOCLDY    69  58  67 SW3       29.93F

$$

_____REGIONAL QUEBEC LOCATIONS_____


CITY           SKY/WX    TMP DP  RH WIND       PRES   REMARKS
MONTREAL       PTCLDY    68  57  68 NW7       29.92R
QUEBEC CITY    MOCLDY    66  57  72 W3        29.88S
SHERBROOKE     CLOUDY    63  59  88 W3        29.92R

_____REGIONAL ONTARIO LOCATIONS_____


CITY           SKY/WX    TMP DP  RH WIND       PRES   REMARKS
OTTAWA         MOCLDY    66  57  72 NW8       29.96S

______KEY______
VSB  - VISIBILITY IN MILES
WCI  - WIND CHILL INDEX
HX   - HEAT INDEX
$$
NNNN


USA.gov is the U.S. government's official web portal to all federal, state and local government web resources and services.